Regional Weather Roundup
Issued by NWS

Home | Current Version | Previous Version | Text Only | Print | Product List | Glossary Off
Versions: 1 2 3 4 5 6 7 8 9 10 11 12 13 14 15 16 17 18 19 20 21 22 23 24 25 26 27 28 29 30 31 32 33 34 35 36 37 38 39 40 41 42 43 44 45 46 47 48 49 50

000
ASUS43 KDTX 302110
RWRMI
MICHIGAN HOURLY REGIONAL WEATHER ROUNDUP
NATIONAL WEATHER SERVICE DETROIT/PONTIAC MI
500 PM EDT TUE SEP 30 2014

NOTE: "FAIR" INDICATES FEW OR NO CLOUDS BELOW 12,000 FEET WITH NO
SIGNIFICANT WEATHER AND/OR OBSTRUCTION TO VISIBILITY.

MIZ047>049-052>055-059>063-066>070-074>076-081>083-302200-
SOUTHEAST LOWER MICHIGAN

CITY           SKY/WX    TMP DP  RH WIND       PRES   REMARKS
ADRIAN         CLOUDY    57  48  72 N6        29.98F
ALMA           CLOUDY    55  48  77 NE7       30.01S
ANN ARBOR      CLOUDY    57  48  72 N8        29.98R
BAD AXE        LGT RAIN  51  51 100 N10G18    29.99R
CARO           DRIZZLE   52  50  94 NW8       29.99S
DETROIT CITY   CLOUDY    57  48  72 N8        29.99S
DETROIT        CLOUDY    57  49  74 NW8       29.98R
FLINT          CLOUDY    53  48  83 N8        30.01S HAZE
GROSSE ILE     CLOUDY    57  52  82 N9        29.96R
HILLSDALE      CLOUDY    57  49  76 N3        29.98S
HOWELL         CLOUDY    53  47  82 N5        29.99S

CITY           SKY/WX    TMP DP  RH WIND       PRES   REMARKS
JACKSON        CLOUDY    56  48  74 N6        29.99R
LAMBERTVILLE   CLOUDY    59  48  67 NW3       29.98S
LANSING        CLOUDY    56  46  69 N7        30.01R
LAPEER         DRIZZLE   51  49  93 NW6       29.99S
MASON          CLOUDY    55  47  75 N6        29.99S
MONROE         CLOUDY    57  52  82 W3        29.96R
MT. CLEMENS    CLOUDY    55  49  79 NW9       29.95R
PONTIAC        CLOUDY    53  47  79 N9        29.98S
PORT HOPE        N/A     55  53  93 VRB7G17   29.96R
PORT HURON     CLOUDY    54  50  87 NW7       29.97S
TRI CITIES     CLOUDY    53  48  83 N7        30.02S FOG
TROY           CLOUDY    55  49  79 NW10      30.00S
SAGINAW HB     CLOUDY    52  52 100 N5        30.01S
$$
MIZ043>046-050>051-056>058-064>065-071>073-077>080-302200-
SOUTHWEST LOWER MICHIGAN

CITY           SKY/WX    TMP DP  RH WIND       PRES   REMARKS
BATTLE CREEK   CLOUDY    57  47  69 N8        29.99F
BIG RAPIDS     CLOUDY    54  50  87 N6        30.01S
COLDWATER      CLOUDY    57  49  74 NW3       29.99S
FREMONT        CLOUDY    54  45  71 N3        30.01F
HOLLAND        CLOUDY    57  47  69 NW6       30.02S
GRAND RAPIDS   CLOUDY    58  49  72 N8        30.00F
IONIA          CLOUDY    57  47  70 N3        29.99S
KALAMAZOO      CLOUDY    55  46  71 N3        30.01S
LUDINGTON      CLOUDY    52  48  87 NE6       30.04S
MARSHALL       CLOUDY    55  48  75 NW3       29.99S
MOUNT PLEASANT CLOUDY    55  47  73 N6        30.00S
MUSKEGON       CLOUDY    56  46  69 NE7       30.02S
SOUTH HAVEN    CLOUDY    56  47  71 NE7       30.01S
$$
MIZ016>042-302200-
NORTHERN LOWER MICHIGAN

CITY           SKY/WX    TMP DP  RH WIND       PRES   REMARKS
ALPENA         CLOUDY    50  47  89 N12       30.03S
BEAVER ISLAND  CLOUDY    55  47  76 E6        30.05S
BELLAIRE       CLOUDY    52  46  82 N5        30.04S
CADILLAC       CLOUDY    50  47  88 N3        30.02F
CHARLEVOIX     CLOUDY    52  48  84 E3        30.07S
FRANKFORT      CLOUDY    54  47  77 N7        30.04S
GAYLORD        CLOUDY    47  45  93 NE8       30.03F
GRAYLING       CLOUDY    54  49  84 NE6       30.03R
HARBOR SPRINGS CLOUDY    51  46  82 E5        30.04F
HOUGHTON LAKE  CLOUDY    53  47  79 N6        30.02S
OSCODA         CLOUDY    49  49  97 N9        30.01R FOG
PELLSTON       CLOUDY    52  46  80 NE5       30.05F
ROGERS CITY    CLOUDY    50  48  93 N3        30.05S
TRAVERSE CITY  CLOUDY    54  46  74 VRB5      30.03S
$$
MIZ007>008-015-302200-
EASTERN UPPER MICHIGAN

CITY           SKY/WX    TMP DP  RH WIND       PRES   REMARKS
MACKINAC ISLAN CLOUDY    51  47  83 CALM      30.04F
NEWBERRY       SUNNY     58  46  66 NE8       30.04S
S. S. MARIE    CLOUDY    54  46  74 W5        30.04S HAZE
MUNISING         N/A     51  43  74 NE9       30.08S
$$
MIZ004>006-011>014-085-302200-
CENTRAL UPPER MICHIGAN

CITY           SKY/WX    TMP DP  RH WIND       PRES   REMARKS
MANISTIQUE     CLOUDY    55  48  77 SE6       30.05S
SAWYER-GWINN   CLOUDY    45  39  81 N5        30.07F
$$
MIZ001>003-009>011-084-302200-
WESTERN UPPER MICHIGAN

CITY           SKY/WX    TMP DP  RH WIND       PRES   REMARKS
IRON MOUNTAIN  MOSUNNY   57  42  57 S5        30.03F
HOUGHTON       SUNNY     49  39  68 SE8       30.07S
COPPER HARBOR    N/A     49  39  68 SE7       30.09F
$$

ABBREVIATIONS USED IN REMARKS
   TC - TEMPERATURE IN CELSIUS
  WCI - WIND CHILL INDEX
   HX - HEAT INDEX
  VSB - VISIBILITY




USA.gov is the U.S. government's official web portal to all federal, state and local government web resources and services.